[[{"header":{"parameterUnit":"m.s-1","parameterCategory":1,"la1":30.2991,"la2":30.254,"lo1":-89.0895,"lo2":-89.0444,"dy":0.0017,"dx":0.0017,"nx":28,"ny":28,"refTime":"2025-05-26T09:00:00:Z","depth":0,"parameterNumber":2,"parameterNumberName":"U-component_of_WINDS"},"data":[0,0,0,0,0,0,0,0,0,0,0,0,0,0,0,0,0,0,0,0,0,0,0,0,0,0,0,0,0,0,0,0,0,0,0,0,0,0,0,0,0,0,0,0,0,0,0,0,0,0,0,0,0,0,0,0,0,0,1.5141,1.5142,0,1.5257,1.5259,1.526,1.5267,1.5266,1.5265,1.5264,1.5386,1.539,1.5394,0,0,0,0,0,0,0,0,0,0,0,0,0,1.4927,1.4931,1.5141,1.5142,1.5144,1.5257,1.5259,1.526,1.5268,1.5266,1.5264,1.5263,1.5384,1.5389,1.5395,0,0,0,0,0,0,0,0,0,0,0,0,0,1.5029,1.4932,1.5141,1.5161,1.5164,1.5257,1.5259,1.5261,1.5268,1.5266,1.5264,1.5262,1.5382,1.5389,1.5395,1.5476,0,0,1.5416,1.5419,0,0,0,0,0,0,0,0,1.5023,1.5037,1.5157,1.516,1.5163,1.5246,1.5228,1.5333,1.5268,1.5229,1.5263,1.5261,1.5341,1.5351,1.5377,1.5482,1.5487,1.5417,1.5421,1.5424,1.5425,0,0,0,0,0,0,0,1.5016,1.5032,1.5187,1.5158,1.5163,1.5165,1.5177,1.5248,1.5295,1.5232,1.5233,1.5246,1.5342,1.5371,1.538,1.5489,1.5416,1.5422,1.5426,1.5429,1.5664,1.5666,0,0,0,0,0,0,1.5005,1.5026,1.5183,1.5191,1.5087,1.517,1.5184,1.5221,1.5294,1.5303,1.5248,1.5246,1.536,1.5372,1.5384,1.5482,1.5423,1.543,1.5434,1.5662,1.5665,1.5667,0,0,0,0,0,0,1.5,1.5019,1.5179,1.5109,1.5129,1.5176,1.5218,1.5225,1.5253,1.5306,1.5314,1.5268,1.5359,1.5375,1.5453,1.5486,1.5433,1.5439,1.5659,1.5663,1.5666,1.5679,0,0,0,0,0,0,1.4994,1.5017,1.5048,1.5109,1.5133,1.5245,1.522,1.5228,1.5264,1.5263,1.5327,1.5336,1.5359,1.5443,1.5459,1.5494,1.5444,1.5657,1.5661,1.5665,1.5675,1.5682,1.5688,0,0,0,0,0,1.4986,1.5048,1.505,1.5069,1.5172,1.5247,1.526,1.5285,1.5267,1.5298,1.5332,1.5334,1.548,1.5451,1.5469,1.5507,1.5655,1.566,1.5665,1.5673,1.5681,1.5688,0,0,0,0,0,0,1.4992,1.5057,1.5059,1.5143,1.5189,1.5248,1.5288,1.5293,1.5346,1.5343,1.5372,1.5386,1.5463,1.5493,1.5459,1.5588,1.5565,1.5574,1.5565,1.5573,1.5579,1.557,1.545,0,0,0,0,0,1.5002,1.5057,1.5111,1.5179,1.5202,1.5241,1.5275,1.5289,1.5339,1.5359,1.5398,1.5447,1.5503,1.554,1.5596,1.568,1.5693,1.5716,1.5722,1.5726,1.5733,1.5778,1.5788,1.5683,1.5683,1.5683,0,0,1.5025,1.5068,1.51,1.5181,1.5219,1.5274,1.5258,1.5318,1.5359,1.5368,1.5443,1.5474,1.553,1.561,1.5648,1.5638,1.5765,1.5733,1.5736,1.5741,1.5784,1.5794,1.5803,1.5687,1.5686,1.5686,0,0,1.5095,1.5133,1.5193,1.523,1.5287,1.5312,1.5326,1.5384,1.5404,1.548,1.5487,1.5537,1.5635,1.5674,1.5707,1.5789,1.5792,1.5806,1.5838,1.5881,1.5889,1.5897,1.5924,1.5934,1.5813,1.5814,1.5814,0,1.5116,1.5199,1.5223,1.5282,1.5317,1.5326,1.5387,1.5423,1.5495,1.5518,1.5506,1.5627,1.5666,1.5755,1.5775,1.5802,1.5818,1.5799,1.5886,1.5894,1.5901,1.5927,1.5938,1.5815,1.5815,1.5814,1.5814,0,1.5222,1.5279,1.5321,1.5388,1.5428,1.5488,1.552,1.5558,1.5569,1.5595,1.5671,1.5718,1.5782,1.5804,1.5817,1.5895,1.5886,1.588,1.5857,1.5912,1.5937,1.5947,1.5817,1.5816,1.5816,1.5815,0,0,1.5298,1.5376,1.5391,1.5421,1.5483,1.5528,1.5588,1.5649,1.5679,1.5729,1.5779,1.586,1.5854,1.5891,1.5908,1.5946,1.6005,1.5935,1.5936,1.5944,1.6092,1.6095,1.6106,1.6008,1.601,1.6012,1.6086,0,1.5373,1.5478,1.55,1.5591,1.5643,1.5652,1.5704,1.5748,1.5774,1.5823,1.5852,1.5908,1.5897,1.5919,1.5957,1.599,1.6035,1.5985,1.6054,1.6056,1.6038,1.612,1.6124,1.6192,1.6097,1.6098,1.61,0,1.5474,1.5523,1.5619,1.5672,1.5695,1.5741,1.5797,1.5844,1.5893,1.591,1.595,1.5962,1.6024,1.5999,1.6084,1.605,1.608,1.61,1.6103,1.6109,1.608,1.6126,1.6215,1.6224,1.6116,1.6115,1.6113,0,1.5517,1.5608,1.5676,1.5702,1.5766,1.5797,1.5826,1.5874,1.5908,1.5958,1.598,1.6038,1.6069,1.6113,1.614,1.6119,1.6222,1.62,1.6237,1.6236,1.6257,1.6255,1.6349,1.6279,1.6279,1.6279,1.6279,0,1.5597,1.5655,1.5696,1.5737,1.5802,1.5827,1.589,1.5919,1.5961,1.6008,1.6021,1.6065,1.6098,1.6147,1.6169,1.6235,1.625,1.6265,1.6269,1.6262,1.626,1.6281,1.6276,1.6282,1.6281,1.628,1.628,0,1.5656,1.5686,1.576,1.5814,1.5829,1.5874,1.592,1.5961,1.5987,1.6047,1.6062,1.6103,1.6161,1.6193,1.6266,1.6281,1.6354,1.6358,1.6337,1.6338,1.6372,1.6368,1.6482,1.6498,1.6419,1.6419,1.642,0,1.5704,1.5748,1.5806,1.5838,1.5866,1.5918,1.5953,1.598,1.6015,1.6074,1.6107,1.6165,1.6213,1.6306,1.6342,1.6398,1.6402,1.6438,1.641,1.6401,1.64,1.6396,1.64,1.6442,1.6443,1.6444,1.6444,0,1.5786,1.5798,1.5847,1.59,1.5941,1.5985,1.6028,1.6054,1.6088,1.6127,1.6186,1.6223,1.6296,1.6354,1.6412,1.6442,1.6448,1.6452,1.6463,1.6456,1.6441,1.6447,1.6348,1.6449,1.6449,1.6449,1.6448,1.6448,1.5839,1.5878,1.5924,1.5977,1.6013,1.6053,1.6092,1.6123,1.6171,1.6232,1.6246,1.6307,1.6354,1.6433,1.6464,1.6513,1.6506,1.6522,1.6526,1.6529,1.6529,1.6435,1.6524,1.6524,1.6524,1.6524,1.6523,0,1.592,1.5949,1.5998,1.6057,1.6099,1.6101,1.6149,1.6184,1.6237,1.628,1.6326,1.6392,1.6448,1.6488,1.6545,1.6576,1.658,1.6589,1.6586,1.6593,1.6534,1.6517,1.6585,1.6585,1.6585,1.6585,1.6585,1.6585,1.5966,1.603,1.6048,1.6129,1.6159,1.6218,1.6245,1.6282,1.6316,1.6389,1.6434,1.6459,1.6501,1.656,1.6611,1.6622,1.6641,1.665,1.666,1.6604,1.6597,1.6591,1.6576,1.6654,1.6654,1.6715,1.6716,1.6716]},{"header":{"parameterUnit":"m.s-1","parameterCategory":1,"la1":30.2991,"la2":30.254,"lo1":-89.0895,"lo2":-89.0444,"dy":0.0017,"dx":0.0017,"nx":28,"ny":28,"refTime":"2025-05-26T09:00:00:Z","depth":0,"parameterNumber":3,"parameterNumberName":"V-component_of_WINDS"},"data":[0,0,0,0,0,0,0,0,0,0,0,0,0,0,0,0,0,0,0,0,0,0,0,0,0,0,0,0,0,0,0,0,0,0,0,0,0,0,0,0,0,0,0,0,0,0,0,0,0,0,0,0,0,0,0,0,0,0,2.9033,2.9034,0,2.9158,2.9159,2.916,2.9162,2.9161,2.9159,2.9158,2.9284,2.9289,2.9294,0,0,0,0,0,0,0,0,0,0,0,0,0,2.8795,2.8799,2.9033,2.9034,2.9036,2.9157,2.9159,2.9161,2.9163,2.9161,2.9159,2.9157,2.9283,2.9288,2.9294,0,0,0,0,0,0,0,0,0,0,0,0,0,2.8906,2.88,2.9032,2.9051,2.9054,2.9157,2.9159,2.9161,2.9163,2.9161,2.9158,2.9156,2.9281,2.9288,2.9295,2.9387,0,0,2.9317,2.932,0,0,0,0,0,0,0,0,2.89,2.8915,2.9047,2.905,2.9054,2.9142,2.9121,2.9237,2.9164,2.9122,2.9158,2.9155,2.9239,2.9249,2.9278,2.9393,2.9398,2.9318,2.9322,2.9325,2.9327,0,0,0,0,0,0,0,2.8892,2.891,2.9082,2.9049,2.9053,2.9053,2.9067,2.9143,2.9192,2.9125,2.9126,2.914,2.924,2.9271,2.9281,2.94,2.9318,2.9324,2.9328,2.9331,2.9595,2.9598,0,0,0,0,0,0,2.8881,2.8903,2.9078,2.9086,2.897,2.9059,2.9074,2.9116,2.9191,2.92,2.9142,2.914,2.926,2.9272,2.9285,2.9397,2.9325,2.9332,2.9336,2.9593,2.9596,2.9599,0,0,0,0,0,0,2.8876,2.8897,2.9073,2.8995,2.9017,2.9066,2.9113,2.912,2.915,2.9204,2.9212,2.9165,2.9258,2.9275,2.9361,2.9402,2.9335,2.9342,2.959,2.9594,2.9597,2.9622,0,0,0,0,0,0,2.8869,2.8895,2.893,2.8996,2.9021,2.9148,2.9115,2.9124,2.9163,2.9161,2.9227,2.9236,2.9258,2.9351,2.9369,2.941,2.9347,2.9586,2.9591,2.9596,2.9617,2.9626,2.9633,0,0,0,0,0,2.886,2.8932,2.8932,2.8953,2.9067,2.915,2.9165,2.9188,2.9166,2.9202,2.9237,2.9234,2.9394,2.9359,2.938,2.9424,2.9584,2.959,2.9596,2.9614,2.9624,2.9633,0,0,0,0,0,0,2.887,2.8941,2.8942,2.9037,2.9087,2.915,2.9196,2.9199,2.9256,2.9252,2.9279,2.9294,2.938,2.9411,2.937,2.9516,2.9486,2.9497,2.9493,2.9503,2.9511,2.9502,2.9354,0,0,0,0,0,2.8883,2.8945,2.9003,2.9082,2.9107,2.9147,2.9184,2.9198,2.9251,2.9273,2.9313,2.9365,2.9426,2.9467,2.9527,2.9622,2.9636,2.9663,2.967,2.9677,2.9685,2.9737,2.975,2.9619,2.9618,2.9618,0,0,2.8911,2.8958,2.8995,2.9085,2.9125,2.9188,2.9165,2.9233,2.9279,2.9283,2.9367,2.9398,2.9457,2.9548,2.9591,2.9577,2.9724,2.9684,2.9689,2.9694,2.9745,2.9757,2.9768,2.9623,2.9622,2.9621,0,0,2.8994,2.9036,2.9105,2.9146,2.9208,2.9235,2.9251,2.9314,2.9335,2.942,2.9423,2.9479,2.9585,2.9627,2.9662,2.976,2.976,2.9779,2.982,2.9871,2.9881,2.989,2.9925,2.9937,2.9787,2.9787,2.9788,0,2.9021,2.9116,2.914,2.9208,2.9247,2.9253,2.9323,2.9362,2.944,2.9467,2.9451,2.9584,2.9624,2.9725,2.9749,2.9777,2.9796,2.9772,2.9878,2.9887,2.9896,2.9929,2.9942,2.9789,2.9789,2.9789,2.9789,0,2.9145,2.9211,2.926,2.9335,2.938,2.9449,2.9483,2.9525,2.9535,2.9563,2.9648,2.9697,2.9767,2.9792,2.9802,2.9894,2.9883,2.9872,2.9842,2.991,2.9942,2.9955,2.9792,2.9791,2.9791,2.979,0,0,2.9238,2.9326,2.9343,2.9377,2.9446,2.9497,2.9566,2.9634,2.967,2.9723,2.9781,2.9871,2.9861,2.9901,2.9916,2.996,3.0034,2.9943,2.9945,2.9958,3.0137,3.0145,3.016,3.0034,3.0037,3.0039,3.0132,0,2.9328,2.945,2.9474,2.958,2.964,2.9647,2.9707,2.9755,2.9783,2.9838,2.9868,2.9931,2.9913,2.9938,2.9982,3.0016,3.007,3.0009,3.0088,3.009,3.0072,3.0176,3.0185,3.0271,3.0145,3.0147,3.0149,0,2.9449,2.9506,2.9618,2.9678,2.9704,2.9758,2.9822,2.9875,2.993,2.9947,2.9991,3.0001,3.0072,3.0039,3.0136,3.0094,3.0128,3.0149,3.0153,3.0161,3.0123,3.0187,3.0299,3.0312,3.0168,3.0167,3.0165,0,2.9505,2.9609,2.969,2.9719,2.9791,2.9828,2.986,2.9912,2.9952,3.0008,3.0034,3.0097,3.0132,3.018,3.0207,3.0181,3.0303,3.0272,3.0318,3.0318,3.0344,3.0341,3.0462,3.0366,3.0365,3.0365,3.0365,0,2.9602,2.967,2.9715,2.9765,2.9841,2.9868,2.9942,2.9974,3.002,3.0075,3.0085,3.0136,3.0169,3.0225,3.0246,3.0323,3.0339,3.0354,3.0359,3.0354,3.0352,3.0376,3.037,3.0369,3.0368,3.0367,3.0367,0,2.9677,2.971,2.9798,2.9859,2.9876,2.993,2.9982,3.003,3.0058,3.0127,3.0145,3.0189,3.0255,3.0287,3.0369,3.0383,3.0471,3.0472,3.0452,3.0454,3.0499,3.0494,3.0639,3.0659,3.0549,3.055,3.0551,0,2.9737,2.979,2.9857,2.9894,2.9927,2.9988,3.0028,3.0056,3.0097,3.0163,3.0203,3.027,3.0325,3.0431,3.047,3.0532,3.0535,3.0581,3.0544,3.0537,3.0535,3.0531,3.0537,3.0588,3.0589,3.059,3.059,0,2.984,2.9854,2.9911,2.9975,3.0023,3.0074,3.0125,3.0155,3.0191,3.0237,3.0305,3.0347,3.0432,3.0498,3.0563,3.0595,3.0599,3.0602,3.0616,3.061,3.0597,3.0604,3.047,3.0598,3.0597,3.0597,3.0596,3.0596,2.9909,2.9956,3.001,3.0074,3.0115,3.0162,3.021,3.0243,3.0301,3.0372,3.0384,3.0457,3.0509,3.0598,3.0632,3.0689,3.0678,3.0699,3.0704,3.0708,3.071,3.0588,3.0701,3.0701,3.0701,3.0701,3.07,0,3.0012,3.0047,3.0106,3.0176,3.0226,3.0225,3.0281,3.0323,3.0386,3.0436,3.049,3.0568,3.0632,3.0675,3.074,3.0777,3.078,3.0793,3.079,3.0798,3.0717,3.0698,3.0789,3.0789,3.0789,3.0789,3.0789,3.0789,3.0071,3.015,3.017,3.027,3.0304,3.0375,3.0407,3.045,3.0489,3.0576,3.063,3.0658,3.0705,3.0773,3.0831,3.0843,3.0866,3.0879,3.089,3.0813,3.0804,3.0795,3.0777,3.0884,3.0884,3.0966,3.0967,3.0968]}]]